Flag for U.S.A. Weather past 2 weeks in Boulder, Colorado, U.S.A.

Now
19 °F

Partly sunny.


Feels Like: 13 °F
Forecast: 12 / 22 °F
Wind: 5 mph from North

Location: Broomfield / Jeffco

Current Time: Dec 26, 2014 at 2:34:43 PM

Latest Report: Dec 26, 2014 at 1:50 PM


Visibility: 2 mi

Pressure: 29.90 "Hg

Humidity: 79%

Dew point: 14 °F

Location of BoulderLocation

Historic Weather in Boulder — Graph

°F

Boulder temperature yesterday

Maximum temperature yesterday: 46 °F (at 12:35 AM)
Minimum temperature yesterday: 21 °F (at 10:50 PM)
Average temperature yesterday: 34 °F

Past Weeks' High & Low Weather Summary

 TemperatureHumidityPressure
High64 °F (Dec 11, 2:57 PM)100% (Dec 14, 9:51 AM)30.18 "Hg (Dec 14, 9:51 AM)
Low16 °F (Dec 26, 5:45 AM)14% (Dec 12, 1:45 PM)29.36 "Hg (Dec 25, 4:55 AM)
Average35 °F61%29.90 "Hg
* Reported Dec 11 12:45 PM — Dec 26 12:45 PM, Boulder, Weather by CustomWeather, © 2014

Note: Actual official high and low records may vary slightly from our data, if they occured in-between our weather recording intervals... More about our weather records

Advertising

Boulder weather history for previous 24 hours

 ConditionsComfort  
Time TempWeatherWind HumidityBarometerVisibility
12:45 PM
Dec 26
19 °FBroken clouds.5 mph73%29.91 "Hg5 mi
11:47 AM19 °FLow clouds.3 mph79%29.92 "Hg3 mi
10:50 AM18 °FLight snow. Low clouds.5 mph86%29.95 "Hg3 mi
9:45 AM18 °FLight snow. Low clouds.7 mph93%29.96 "Hg1 mi
6:47 AM16 °FLight snow. Passing clouds.5 mph93%29.89 "Hg3 mi
5:45 AM16 °FPassing clouds.6 mph93%29.89 "Hg3 mi
12:03 AM21 °FLight snow. Low clouds.10 mph93%29.86 "Hg5 mi
11:51 PM
Dec 25
21 °FLight snow. Mostly cloudy.10 mph93%29.85 "Hg4 mi
11:35 PM21 °FLight snow. Low clouds.9 mph93%29.85 "Hg3 mi
11:15 PM21 °FLight snow. Mostly cloudy.15 mph100%29.85 "Hg4 mi
10:50 PM21 °FCold.13 mph100%29.86 "HgN/A
10:35 PM23 °FCold.14 mph93%29.85 "HgN/A
10:15 PM23 °FCold.16 mph93%29.85 "HgN/A
9:46 PM23 °FMostly cloudy.7 mph93%29.85 "Hg3 mi
8:53 PM23 °FLight snow. Mostly cloudy.13 mph93%29.82 "Hg1 mi
7:50 PM25 °FSnow. Mostly cloudy.13 mph93%29.79 "Hg1 mi
6:53 PM25 °FLight snow. Mostly cloudy.12 mph100%29.77 "Hg1 mi
2:45 PM34 °FMostly cloudy.10 mph93%29.54 "Hg15 mi
Weather by CustomWeather, © 2014

See weather overviewHow to use our weather pages